Tracking 30994 objects as of 8-Jul-2025
HD Live streaming from Space Station
objects crossing your sky now

DELTA 1 DEB

Track DELTA 1 DEB now!
10-day predictions


NORAD ID: 7058
Int'l Code: 1973-086BA
Perigee: 1,445.0 km
Apogee: 1,459.6 km
Inclination: 101.8 °
Period: 114.8 minutes
Semi major axis: 7823 km
RCS: 0.0607 m2 (small)
Launch date: November 6, 1973
Source: United States (US)
Launch site: AIR FORCE WESTERN TEST RANGE (AFWTR)

Note: This is SATELLITE DEBRIS
Your satellite tracking list
Your tracking list is empty




NASA's NSSDC Master Catalog

Two Line Element Set (TLE):
1 07058U 73086BA  25188.59530334  .00000330  00000-0  23225-2 0  9992
2 07058 101.8090 172.4891 0009321  27.9635  98.0409 12.54640578355948
Source of the keplerian elements: AFSPC